DW9615 Home Hill AU current weather conditions

sailwx.info

Wind from 170

Air temperature 13.9° C
Dewpoint 12.1° C

Last reported at 2015-Jul-04 17:51 UTC.
Time now 2015-Jul-04 18:58 UTC

Location: S 19°40' E 147°25'.
View on Google Maps.

See reports from other nearby stations

  
Tides and Currents Weather Stations Pressure Air Temp Water Temp Dewpoint Dewpoint Depression Visibility Wind Speed Wind Dir Waves Ship Positions
date/time (UTC)wind fromknots sea level pressurealtimeterstation pressurevisibilityair tempwater tempwave heightnotes
2015-Jul-04 17:51 170 13.9
2015-Jul-04 17:35 170 14.4
2015-Jul-04 17:20 170 14.4
2015-Jul-04 17:05 170 15.0
2015-Jul-04 16:50 165 0 gusting 2 15.6
2015-Jul-04 16:35 165 0 gusting 3 15.0
2015-Jul-04 16:20 227 15.0
2015-Jul-04 16:05 175 15.6
2015-Jul-04 15:50 165 0 gusting 3 15.6
2015-Jul-04 15:35 139 1 gusting 6 15.6
2015-Jul-04 15:20 170 1 gusting 4 15.6
2015-Jul-04 15:05 133 1 gusting 4 15.6
2015-Jul-04 14:50 175 0 gusting 3 15.6
2015-Jul-04 14:35 130 0 gusting 4 16.1
2015-Jul-04 14:20 110 0 gusting 3 16.1
2015-Jul-04 14:05 110 0 gusting 1 16.1
2015-Jul-04 13:50 129 0 gusting 2 16.7
2015-Jul-04 13:35 141 0 gusting 4 16.7
2015-Jul-04 13:21 132 1 gusting 3 17.2
2015-Jul-04 13:06 139 0 gusting 3 17.8
2015-Jul-04 12:51 110 2 gusting 5 17.8
2015-Jul-04 12:36 125 2 gusting 6 17.8
2015-Jul-04 12:21 104 0 gusting 5 17.2
2015-Jul-04 12:06 154 1 gusting 4 16.7
2015-Jul-04 11:51 125 0 gusting 2 16.7
2015-Jul-04 11:36 125 0 gusting 1 16.7
2015-Jul-04 11:21 135 0 gusting 2 17.2
2015-Jul-04 11:06 129 1 gusting 2 18.3
2015-Jul-04 10:51 095 0 gusting 3 18.9
2015-Jul-04 10:36 119 1 gusting 3 18.9
2015-Jul-04 10:21 114 0 gusting 2 18.9
2015-Jul-04 10:06 106 1 gusting 6 19.4
2015-Jul-04 09:51 115 2 gusting 6 18.3
2015-Jul-04 09:36 121 0 gusting 2 18.3
2015-Jul-04 09:21 093 1 gusting 3 18.9
2015-Jul-04 09:06 084 1 gusting 4 18.9
2015-Jul-04 08:51 075 0 gusting 4 19.4
2015-Jul-04 08:36 090 2 gusting 6 19.4
2015-Jul-04 08:21 085 1 gusting 4 19.4
2015-Jul-04 08:06 050 1 gusting 4 20.0
2015-Jul-04 07:51 096 1 gusting 6 20.6
2015-Jul-04 07:36 053 1 gusting 4 21.1
2015-Jul-04 07:21 078 3 gusting 6 21.7
2015-Jul-04 07:06 067 2 gusting 8 22.2
2015-Jul-04 06:51 063 3 gusting 8 22.8
2015-Jul-04 06:36 095 6 gusting 10 23.3
2015-Jul-04 06:21 044 4 gusting 9 23.3
2015-Jul-04 06:06 054 6 gusting 10 23.3
2015-Jul-04 05:51 038 4 gusting 10 23.9
2015-Jul-04 05:35 086 5 gusting 8 23.9
2015-Jul-04 05:20 067 5 gusting 9 23.9
2015-Jul-04 05:05 042 5 gusting 10 23.9
2015-Jul-04 04:50 155 3 gusting 8 23.9
2015-Jul-04 04:35 069 2 gusting 8 23.9
2015-Jul-04 04:20 044 2 gusting 9 23.9
2015-Jul-04 04:05 047 4 gusting 8 23.9
2015-Jul-04 03:50 038 6 gusting 13 23.3
2015-Jul-04 03:35 072 6 gusting 11 23.9
2015-Jul-04 03:20 087 4 gusting 11 23.9
2015-Jul-04 03:05 042 6 gusting 12 23.3
2015-Jul-04 02:50 082 2 gusting 11 23.9
2015-Jul-04 02:35 121 3 gusting 8 23.3
2015-Jul-04 02:20 098 3 gusting 9 23.3
2015-Jul-04 02:05 186 3 gusting 9 23.3
2015-Jul-04 01:50 071 3 gusting 8 22.8
2015-Jul-04 01:35 064 1 gusting 9 22.8
2015-Jul-04 01:20 133 3 gusting 9 22.2
2015-Jul-04 01:05 142 3 gusting 8 21.7
2015-Jul-04 00:50 068 1 gusting 7 21.7
2015-Jul-04 00:35 116 2 gusting 8 21.1
2015-Jul-04 00:20 175 3 gusting 8 20.6
2015-Jul-04 00:05 098 5 gusting 9 20.0
2015-Jul-03 23:50 103 3 gusting 8 19.4
2015-Jul-03 23:35 155 2 gusting 8 18.3
2015-Jul-03 23:20 157 2 gusting 6 18.3
2015-Jul-03 23:04 198 2 gusting 6 17.2
2015-Jul-03 22:49 151 0 gusting 2 16.1
2015-Jul-03 22:34 214 0 gusting 2 15.0
2015-Jul-03 22:19 245 13.9
2015-Jul-03 22:04 217 12.8
2015-Jul-03 21:49 229 12.2
2015-Jul-03 21:34 256 11.1
2015-Jul-03 21:19 257 10.0
2015-Jul-03 21:04 257 10.0
2015-Jul-03 20:49 260 10.0
2015-Jul-03 20:34 262 10.0
2015-Jul-03 20:19 262 10.0
2015-Jul-03 20:04 262 10.0
2015-Jul-03 19:49 211 10.6
2015-Jul-03 19:34 189 10.6
2015-Jul-03 19:19 194 10.6
2015-Jul-03 19:04 184 10.6
2015-Jul-03 18:49 225 10.6
2015-Jul-03 18:34 165 11.1
2015-Jul-03 18:19 165 11.7
2015-Jul-03 18:04 160 11.7
2015-Jul-03 17:49 165 0 gusting 2 12.2
2015-Jul-03 17:34 124 11.7
2015-Jul-03 17:19 158 0 gusting 2 11.7
2015-Jul-03 17:04 127 11.1
2015-Jul-03 16:49 126 11.7
2015-Jul-03 16:34 128 11.7
2015-Jul-03 16:19 134 0 gusting 1 11.7
2015-Jul-03 16:04 151 1 gusting 3 12.2
2015-Jul-03 15:49 105 0 gusting 2 12.2
2015-Jul-03 15:34 131 1 gusting 4 12.8
2015-Jul-03 15:18 146 1 gusting 4 12.8
2015-Jul-03 15:03 129 1 gusting 3 12.2
2015-Jul-03 14:48 139 0 gusting 2 12.8
2015-Jul-03 14:33 123 1 gusting 3 13.3
2015-Jul-03 14:18 123 2 gusting 6 14.4
2015-Jul-03 14:03 134 3 gusting 6 13.9
2015-Jul-03 13:48 122 2 gusting 4 13.3
2015-Jul-03 13:33 127 2 gusting 5 12.8
2015-Jul-03 13:18 154 0 gusting 2 12.8
2015-Jul-03 13:03 170 12.8
2015-Jul-03 12:48 170 12.8
2015-Jul-03 12:33 170 12.8
2015-Jul-03 12:18 170 13.3
2015-Jul-03 12:03 165 13.9
2015-Jul-03 11:48 129 14.4
2015-Jul-03 11:33 127 0 gusting 1 14.4
2015-Jul-03 11:18 123 15.0
2015-Jul-03 11:03 123 15.0
2015-Jul-03 10:48 126 0 gusting 3 16.1
2015-Jul-03 10:33 063 1 gusting 5 16.7
2015-Jul-03 10:18 071 0 gusting 3 16.1
2015-Jul-03 10:03 091 16.1
2015-Jul-03 09:48 096 0 gusting 2 16.1
2015-Jul-03 09:33 064 0 gusting 2 16.7
2015-Jul-03 09:18 086 0 gusting 2 16.7
2015-Jul-03 09:03 077 0 gusting 2 16.7
2015-Jul-03 08:48 080 1 gusting 3 17.2
2015-Jul-03 08:33 067 0 gusting 2 17.2
2015-Jul-03 08:18 095 1 gusting 3 17.8
2015-Jul-03 08:03 091 1 gusting 3 18.3
2015-Jul-03 07:48 099 3 gusting 5 18.9
2015-Jul-03 07:33 059 3 gusting 6 19.4
2015-Jul-03 07:18 096 2 gusting 8 20.0
2015-Jul-03 07:03 101 4 gusting 9 20.6
2015-Jul-03 06:48 071 5 gusting 11 21.1
2015-Jul-03 06:33 057 4 gusting 10 21.1
2015-Jul-03 06:18 074 5 gusting 10 21.7
2015-Jul-03 06:03 031 5 gusting 10 22.2
2015-Jul-03 05:48 055 3 gusting 9 22.2
2015-Jul-03 05:33 060 6 gusting 12 22.8
2015-Jul-03 05:18 069 2 gusting 8 23.3
2015-Jul-03 05:03 057 5 gusting 9 23.9
2015-Jul-03 04:48 201 2 gusting 7 24.4
2015-Jul-03 04:33 140 3 gusting 8 24.4
2015-Jul-03 04:18 150 3 gusting 10 24.4
2015-Jul-03 03:48 254 1 gusting 7 24.4
2015-Jul-03 03:33 161 5 gusting 9 24.4
2015-Jul-03 03:18 156 2 gusting 7 24.4
2015-Jul-03 03:03 196 3 gusting 9 23.9
2015-Jul-03 02:48 175 4 gusting 8 23.9
2015-Jul-03 02:33 206 5 gusting 9 23.9
2015-Jul-03 02:17 170 1 gusting 5 23.9
2015-Jul-03 02:02 192 3 gusting 9 23.3
2015-Jul-03 01:47 245 0 gusting 5 22.8
2015-Jul-03 01:32 175 2 gusting 9 22.8
2015-Jul-03 01:17 283 0 gusting 7 22.8
2015-Jul-03 01:02 151 2 gusting 8 22.2
2015-Jul-03 00:47 181 1 gusting 7 22.2
2015-Jul-03 00:32 165 4 gusting 7 21.7
2015-Jul-03 00:17 088 4 gusting 8 21.7
2015-Jul-03 00:02 153 2 gusting 8 21.1
2015-Jul-02 23:47 112 4 gusting 7 20.6
2015-Jul-02 23:32 183 3 gusting 7 20.0
2015-Jul-02 23:17 132 2 gusting 6 19.4
2015-Jul-02 23:02 170 2 gusting 5 18.9
2015-Jul-02 22:47 160 0 gusting 3 17.8
2015-Jul-02 22:32 200 1 gusting 3 17.2
2015-Jul-02 22:17 165 1 gusting 3 16.1
2015-Jul-02 22:02 181 0 gusting 3 15.0
2015-Jul-02 21:47 170 0 gusting 2 14.4
2015-Jul-02 21:32 165 13.9
2015-Jul-02 21:17 165 12.8
2015-Jul-02 21:02 165 12.8
2015-Jul-02 20:46 165 12.2
2015-Jul-02 20:31 165 12.8
2015-Jul-02 20:16 165 12.8
2015-Jul-02 20:01 165 12.8
2015-Jul-02 19:46 165 12.8
2015-Jul-02 19:31 170 0 gusting 2 12.8
2015-Jul-02 19:16 165 0 gusting 2 13.3
2015-Jul-02 19:01 183 12.8
2015-Jul-02 18:46 183 13.3
2015-Jul-02 18:31 183 13.3
2015-Jul-02 18:16 246 13.3
2015-Jul-02 18:01 246 13.3